Location: Musselshell
(46.5176°N, 108.0911°W)
Time: 08:49:37
(UTC+00:00)

YUBILEINY - Pass Details

Date: 07 July 2022
Orbit: 1478 x 1509 km, 82.5° (Epoch: 13 August)

Event Time Altitude Azimuth Distance (km) Brightness Sun altitude
Rises 08:37:18 0° 355° (N) 4,651 ? -18.6°
Reaches altitude 10° 08:41:36 10° 14° (NNE) 3,661 ? -18.3°
Maximum altitude 08:47:15 18° 54° (NE) 3,050 ? -18.0°
Drops below altitude 10° 08:52:50 10° 95° (E) 3,635 ? -17.6°
Sets 08:57:01 0° 113° (ESE) 4,605 ? -17.3°
